Hourly Data Report for March 16, 2012

BAGOTVILLE A
QUEBEC

48°20'00.000" N
71°00'00.000" W
159.10 m
7060400
71727
YBG

Download Data

Hourly Data (March 2012)
Hourly Data Report for March 16, 2012
TIME
LST
Temp Definition
°C
Dew Point Definition
°C
Rel Hum Definition
%
Precip. Amount Definition
mm

Wind Dir Definition
10's deg

Wind Spd Definition
km/h
Visibility Definition
km
Stn Press Definition
kPa
Hmdx Definition


Wind Chill Definition


Weather Definition


00:00 -2.1 -4.9 81   10 28 24.1 100.39   -9 Mostly Cloudy
01:00 -1.9 -4.1 85   9 24 24.1 100.32   -8 Mostly Cloudy
02:00 -1.9 -4.1 85   10 20 24.1 100.27   -8 Mostly Cloudy
03:00 -1.7 -4.1 84   9 20 24.1 100.25   -7 Cloudy
04:00 -1.7 -3.8 86   10 20 24.1 100.21   -7 Freezing Rain
05:00 -1.9 -4.1 85   9 20 24.1 100.18   -8 Ice Pellets
06:00 -1.8 -3.1 91   10 22 19.3 100.11   -8 Freezing Rain
07:00 -1.9 -3.0 92   9 28 19.3 100.07   -9 Cloudy
08:00 -1.6 -3.1 89   9 17 16.1 100.04   -7 Freezing Drizzle
09:00 -1.2 -2.7 90   9 15 9.7 100.01   -6 Freezing Rain,Fog
10:00 -1.2 -2.4 92   9 17 4.0 100.01   -6 Freezing Rain,Moderate Ice Pellets,Fog
11:00 -1.0 -2.4 90   10 13 3.2 99.97   -5 Snow,Ice Pellets,Fog
12:00 -1.2 -2.1 94   11 13 4.8 99.90   -5 Fog
13:00 -0.4 -2.0 89   9 11 9.7 99.89   -4 Fog
14:00 0.5 -0.7 92     0 16.1 99.96     Cloudy
15:00 0.8 -0.7 90   27 6 12.9 99.99     Cloudy
16:00 1.0 -0.2 92   28 9 12.9 100.00     Cloudy
17:00 1.5 0.3 92   28 9 9.7 100.04     Fog
18:00 1.6 0.6 93   31 9 6.4 100.12     Fog
19:00 1.5 0.5 93   28 7 4.8 100.23     Fog
20:00 1.1 0.4 95   26 17 6.4 100.30     Fog
21:00 1.3 0.3 93   25 13 12.9 100.37     Cloudy
22:00 1.1 -0.1 92   24 9 24.1 100.39     Mainly Clear
23:00 0.2 -0.8 93     0 24.1 100.36     Clear

Notes on Data Quality.

Legend

  • E = Estimated
  • M = Missing
  • NA = Not Available*
  • [empty] = Indicates an unobserved value
Date modified: